VE7KNL-13 Weather Reports


time (UTC)temp
F
wind
direction
speed
knots
gust
knots
rain 1hr
in
rain 24hr
in
rain mn
in
humidity
%
barometer
mb
20260504173018 70 45 0.9 4.3 0.00 0.00 0.00 39 1006.7
20260504172017 70 45 1.7 4.3 0.00 0.00 0.00 40 1006.9
20260504171017 69 68 0.9 3.5 0.00 0.00 0.00 39 1006.9
20260504151017 56 0 0.9 1.7 0.00 0.00 0.00 60 1007.7
20260504141037 45 0.0 0.0 0.00 0.00 0.00 86 1007.6
20260504081016 48 0.0 0.0 0.00 0.00 0.00 73 1007.6
20260504050017 57 0.0 0.0 0.00 0.00 0.00 59 1006.7
20260504045017 58 0.0 1.7 0.00 0.00 0.00 56 1006.4
20260504044017 59 0.0 0.0 0.00 0.00 0.00 54 1006.5
20260504043038 59 0.0 0.0 0.00 0.00 0.00 53 1006.7
20260504042017 60 0.0 0.0 0.00 0.00 0.00 55 1006.2
20260504041017 60 0.0 0.0 0.00 0.00 0.00 54 1006.0
20260504040017 61 0.0 0.0 0.00 0.00 0.00 54 1006.0
20260504035017 61 0.0 0.0 0.00 0.00 0.00 52 1005.7
20260504034017 62 0.0 0.0 0.00 0.00 0.00 51 1005.5
20260504033017 63 0.0 0.0 0.00 0.00 0.00 50 1005.5
20260504032037 63 0.0 0.0 0.00 0.00 0.00 51 1004.9
20260504031017 64 0.0 0.0 0.00 0.00 0.00 49 1005.0
20260504030037 65 0.0 0.0 0.00 0.00 0.00 50 1005.0
20260504025017 66 0.0 0.0 0.00 0.00 0.00 47 1004.6
20260504024017 67 0.0 0.0 0.00 0.00 0.00 46 1004.5
20260504023017 68 0.0 0.0 0.00 0.00 0.00 44 1004.7
20260504022017 70 0.0 0.0 0.00 0.00 0.00 41 1004.1
20260504021017 71 0.0 0.9 0.00 0.00 0.00 41 1004.3
20260504020017 72 0.0 0.0 0.00 0.00 0.00 37 1004.3
20260504015017 74 0.0 0.9 0.00 0.00 0.00 35 1004.3
20260504014017 76 0.0 2.6 0.00 0.00 0.00 31 1004.4
20260504013017 77 0.0 0.9 0.00 0.00 0.00 27 1004.4
20260504012017 79 0.0 0.9 0.00 0.00 0.00 24 1004.6
20260504011017 79 0.0 0.9 0.00 0.00 0.00 25 1004.6
20260504010016 79 0.0 1.7 0.00 0.00 0.00 23 1004.6
20260504005017 79 0.0 0.9 0.00 0.00 0.00 25 1004.9
20260504004037 80 0.0 0.9 0.00 0.00 0.00 23 1005.0
20260504003017 80 0.0 1.7 0.00 0.00 0.00 21 1005.0
20260504002016 80 0.0 2.6 0.00 0.00 0.00 23 1005.2
20260504001016 80 248 0.9 2.6 0.00 0.00 0.00 20 1005.3
20260504000016 81 270 1.7 5.2 0.00 0.00 0.00 19 1005.4
20260503235017 82 225 0.9 3.5 0.00 0.00 0.00 21 1005.6
20260503234017 82 45 1.7 4.3 0.00 0.00 0.00 20 1005.9
20260503233017 83 0.0 2.6 0.00 0.00 0.00 19 1005.9
20260503232017 83 0.0 3.5 0.00 0.00 0.00 21 1006.2
20260503231016 82 248 0.9 5.2 0.00 0.00 0.00 22 1006.2
20260503230036 82 0.0 2.6 0.00 0.00 0.00 21 1006.1
20260503225016 82 248 1.7 7.0 0.00 0.00 0.00 20 1006.4
20260503224017 82 270 0.9 4.3 0.00 0.00 0.00 22 1006.9
20260503223017 82 225 0.9 7.0 0.00 0.00 0.00 22 1006.9
20260503222016 82 270 0.9 4.3 0.00 0.00 0.00 21 1007.0
20260503221016 82 270 0.9 7.0 0.00 0.00 0.00 19 1007.4
20260503220016 82 225 0.9 6.1 0.00 0.00 0.00 22 1007.4
20260503215037 82 225 0.9 5.2 0.00 0.00 0.00 20 1007.5
20260503214016 81 180 0.9 5.2 0.00 0.00 0.00 21 1007.6
20260503213036 81 270 2.6 7.0 0.00 0.00 0.00 21 1007.8
20260503212016 81 270 1.7 4.3 0.00 0.00 0.00 22 1008.1
20260503211016 81 225 0.9 3.5 0.00 0.00 0.00 21 1008.1
20260503210016 81 270 0.9 6.1 0.00 0.00 0.00 21 1008.1
20260503205016 81 225 2.6 5.2 0.00 0.00 0.00 19 1008.2
20260503204016 81 90 1.7 7.8 0.00 0.00 0.00 23 1008.5
20260503203018 80 90 0.9 5.2 0.00 0.00 0.00 24 1008.4
20260503202018 80 270 0.9 4.3 0.00 0.00 0.00 25 1008.8
20260503201018 79 113 0.9 4.3 0.00 0.00 0.00 23 1008.9
20260503200018 79 315 1.7 3.5 0.00 0.00 0.00 24 1008.9
20260503195018 78 0.0 0.9 0.00 0.00 0.00 25 1009.2
20260503194018 77 248 0.9 3.5 0.00 0.00 0.00 25 1009.2
20260503193018 77 270 0.9 4.3 0.00 0.00 0.00 25 1009.2
20260503192036 76 90 0.9 3.5 0.00 0.00 0.00 31 1009.5
20260503191018 75 45 2.6 6.1 0.00 0.00 0.00 29 1009.8
20260503190018 75 68 2.6 7.0 0.00 0.00 0.00 29 1009.8
20260503185038 74 45 2.6 7.0 0.00 0.00 0.00 32 1010.0
20260503184038 74 90 0.9 5.2 0.00 0.00 0.00 31 1010.4
20260503183018 73 68 2.6 6.1 0.00 0.00 0.00 31 1010.2
20260503182018 72 113 0.9 3.5 0.00 0.00 0.00 33 1010.9
20260503181018 71 45 2.6 5.2 0.00 0.00 0.00 35 1010.8
20260503180018 70 90 1.7 5.2 0.00 0.00 0.00 34 1010.7
20260503175018 70 68 1.7 4.3 0.00 0.00 0.00 37 1010.9
20260503174018 68 113 1.7 5.2 0.00 0.00 0.00 37 1011.2